| time (UTC) | temp F | wind direction | speed MPH | gust MPH | rain 1hr in | rain 24hr in | rain mn in | humidity % | barometer mb |
| 20260906143013 | 66 | 30 | 0.0 | 3.0 | 0.00 | 0.00 | 0.00 | 80 | 1015.8 |
| 20260906141514 | 65 | 22 | 2.0 | 11.0 | 0.00 | 0.00 | 0.00 | 81 | 1015.7 |
| 20260906140022 | 65 | 40 | 2.0 | 8.0 | 0.00 | 0.00 | 0.00 | 83 | 1015.6 |
| 20260906134508 | 64 | 32 | 1.0 | 6.0 | 0.00 | 0.00 | 0.00 | 85 | 1015.7 |
| 20260906133005 | 63 | 38 | 1.0 | 10.0 | 0.00 | 0.00 | 0.00 | 88 | 1015.7 |
| 20260906131502 | 62 | 55 | 1.0 | 10.0 | 0.00 | 0.00 | 0.00 | 91 | 1015.7 |
| 20260906130110 | 62 | 53 | 0.0 | 3.0 | 0.00 | 0.00 | 0.00 | 93 | 1015.7 |
| 20260906124557 | 61 | 163 | 1.0 | 3.0 | 0.00 | 0.00 | 0.00 | 94 | 1015.8 |
| 20260906123054 | 60 | 159 | 0.0 | 1.0 | 0.00 | 0.00 | 0.00 | 93 | 1015.6 |
| 20260906121558 | 60 | 159 | 0.0 | 0.0 | 0.00 | 0.00 | 0.00 | 94 | 1015.4 |
| 20260906120051 | 59 | 159 | 1.0 | 2.0 | 0.00 | 0.00 | 0.00 | 93 | 1015.2 |
| 20260906114558 | 59 | 159 | 0.0 | 0.0 | 0.00 | 0.00 | 0.00 | 94 | 1015.2 |
| 20260906113055 | 59 | 159 | 0.0 | 1.0 | 0.00 | 0.00 | 0.00 | 93 | 1015.0 |
| 20260906111547 | 58 | 159 | 0.0 | 2.0 | 0.00 | 0.00 | 0.00 | 93 | 1014.9 |
| 20260906110046 | 58 | 159 | 0.0 | 2.0 | 0.00 | 0.00 | 0.00 | 93 | 1014.8 |
| 20260906104545 | 58 | 159 | 0.0 | 0.0 | 0.00 | 0.00 | 0.00 | 93 | 1014.7 |
| 20260906103043 | 58 | 159 | 0.0 | 2.0 | 0.00 | 0.00 | 0.00 | 93 | 1014.5 |
| 20260906101542 | 58 | 159 | 0.0 | 1.0 | 0.00 | 0.00 | 0.00 | 93 | 1014.4 |
| 20260906100042 | 58 | 159 | 0.0 | 1.0 | 0.00 | 0.00 | 0.00 | 93 | 1014.3 |
| 20260906094540 | 58 | 159 | 1.0 | 2.0 | 0.00 | 0.00 | 0.00 | 93 | 1014.2 |
| 20260906093038 | 57 | 159 | 0.0 | 0.0 | 0.00 | 0.00 | 0.00 | 93 | 1013.9 |
| 20260906091537 | 56 | 159 | 2.0 | 4.0 | 0.00 | 0.00 | 0.00 | 93 | 1013.8 |
| 20260906090036 | 56 | 157 | 0.0 | 3.0 | 0.00 | 0.00 | 0.00 | 92 | 1013.7 |
| 20260906084536 | 56 | 157 | 2.0 | 3.0 | 0.00 | 0.00 | 0.00 | 92 | 1013.5 |
| 20260906083035 | 56 | 123 | 1.0 | 2.0 | 0.00 | 0.00 | 0.00 | 92 | 1013.4 |
| 20260906081543 | 56 | 123 | 1.0 | 2.0 | 0.00 | 0.00 | 0.00 | 92 | 1013.4 |
| 20260906080032 | 56 | 123 | 0.0 | 2.0 | 0.00 | 0.00 | 0.00 | 92 | 1013.5 |
| 20260906074531 | 56 | 123 | 0.0 | 1.0 | 0.00 | 0.00 | 0.00 | 92 | 1013.2 |
| 20260906073029 | 57 | 123 | 0.0 | 2.0 | 0.00 | 0.00 | 0.00 | 92 | 1013.4 |
| 20260906071528 | 57 | 123 | 0.0 | 2.0 | 0.00 | 0.00 | 0.00 | 92 | 1013.5 |
| 20260906070026 | 58 | 106 | 0.0 | 2.0 | 0.00 | 0.00 | 0.00 | 92 | 1013.5 |
| 20260906064524 | 58 | 106 | 1.0 | 2.0 | 0.00 | 0.00 | 0.00 | 92 | 1013.4 |
| 20260906063023 | 58 | 106 | 0.0 | 2.0 | 0.00 | 0.00 | 0.00 | 92 | 1013.4 |
| 20260906061522 | 58 | 106 | 0.0 | 3.0 | 0.00 | 0.00 | 0.00 | 92 | 1013.6 |
| 20260906060027 | 58 | 104 | 1.0 | 3.0 | 0.00 | 0.00 | 0.00 | 91 | 1013.7 |
| 20260906054528 | 58 | 37 | 1.0 | 3.0 | 0.00 | 0.00 | 0.00 | 91 | 1013.6 |
| 20260906053026 | 58 | 37 | 1.0 | 3.0 | 0.00 | 0.00 | 0.00 | 91 | 1013.6 |
| 20260906051518 | 59 | 37 | 1.0 | 2.0 | 0.00 | 0.00 | 0.00 | 91 | 1013.8 |
| 20260906050031 | 59 | 36 | 0.0 | 2.0 | 0.00 | 0.00 | 0.00 | 90 | 1013.6 |
| 20260906044532 | 59 | 36 | 0.0 | 3.0 | 0.00 | 0.00 | 0.00 | 90 | 1013.6 |
| 20260906043015 | 59 | 36 | 0.0 | 2.0 | 0.00 | 0.00 | 0.00 | 90 | 1013.6 |
| 20260906041515 | 60 | 36 | 0.0 | 2.0 | 0.00 | 0.00 | 0.00 | 89 | 1013.6 |
| 20260906040020 | 60 | 36 | 1.0 | 2.0 | 0.00 | 0.00 | 0.00 | 89 | 1013.5 |
| 20260906034515 | 60 | 37 | 0.0 | 3.0 | 0.00 | 0.00 | 0.00 | 89 | 1013.4 |
| 20260906033024 | 61 | 37 | 0.0 | 2.0 | 0.00 | 0.00 | 0.00 | 89 | 1013.4 |
| 20260906031509 | 61 | 37 | 0.0 | 2.0 | 0.00 | 0.00 | 0.00 | 88 | 1013.2 |
| 20260906030012 | 62 | 37 | 0.0 | 3.0 | 0.00 | 0.00 | 0.00 | 88 | 1013.0 |
| 20260906024508 | 62 | 37 | 1.0 | 3.0 | 0.00 | 0.00 | 0.00 | 87 | 1013.1 |
| 20260906023006 | 63 | 37 | 1.0 | 2.0 | 0.00 | 0.00 | 0.00 | 86 | 1013.3 |
| 20260906021507 | 63 | 37 | 0.0 | 1.0 | 0.00 | 0.00 | 0.00 | 86 | 1013.1 |
| 20260906020005 | 64 | 37 | 0.0 | 3.0 | 0.00 | 0.00 | 0.00 | 85 | 1013.0 |
| 20260906014504 | 64 | 37 | 0.0 | 1.0 | 0.00 | 0.00 | 0.00 | 85 | 1012.8 |
| 20260906013008 | 65 | 37 | 0.0 | 2.0 | 0.00 | 0.00 | 0.00 | 84 | 1012.7 |
| 20260906011502 | 65 | 29 | 0.0 | 3.0 | 0.00 | 0.00 | 0.00 | 83 | 1012.5 |
| 20260906010002 | 66 | 29 | 1.0 | 2.0 | 0.00 | 0.00 | 0.00 | 82 | 1012.7 |
| 20260906004501 | 66 | 29 | 0.0 | 3.0 | 0.00 | 0.00 | 0.00 | 80 | 1012.4 |
| 20260906003105 | 67 | 29 | 0.0 | 1.0 | 0.00 | 0.00 | 0.00 | 79 | 1012.2 |
| 20260906001600 | 68 | 29 | 0.0 | 1.0 | 0.00 | 0.00 | 0.00 | 77 | 1012.0 |
| 20260906000100 | 69 | 29 | 0.0 | 1.0 | 0.00 | 0.00 | 0.00 | 76 | 1012.2 |
| 20260905234559 | 69 | 29 | 0.0 | 1.0 | 0.00 | 0.00 | 0.00 | 76 | 1011.9 |
| 20260905233100 | 69 | 29 | 1.0 | 5.0 | 0.00 | 0.00 | 0.00 | 75 | 1012.1 |
| 20260905231559 | 70 | 32 | 1.0 | 5.0 | 0.00 | 0.00 | 0.00 | 74 | 1011.9 |
| 20260905230058 | 70 | 32 | 0.0 | 2.0 | 0.00 | 0.00 | 0.00 | 72 | 1011.9 |
| 20260905224605 | 71 | 32 | 0.0 | 3.0 | 0.00 | 0.00 | 0.00 | 70 | 1011.8 |
| 20260905223058 | 71 | 33 | 2.0 | 6.0 | 0.00 | 0.00 | 0.00 | 68 | 1011.9 |
| 20260905221603 | 72 | 360 | 2.0 | 7.0 | 0.00 | 0.00 | 0.00 | 68 | 1011.6 |
| 20260905220105 | 72 | 355 | 3.0 | 8.0 | 0.00 | 0.00 | 0.00 | 66 | 1011.5 |
| 20260905214554 | 72 | 355 | 4.0 | 8.0 | 0.00 | 0.00 | 0.00 | 65 | 1011.3 |
| 20260905213054 | 72 | 10 | 2.0 | 6.0 | 0.00 | 0.00 | 0.00 | 67 | 1011.2 |
| 20260905211621 | 72 | 10 | 1.0 | 3.0 | 0.00 | 0.00 | 0.00 | 68 | 1011.1 |
| 20260905210056 | 72 | 34 | 1.0 | 3.0 | 0.00 | 0.00 | 0.00 | 67 | 1011.0 |
| 20260905204557 | 72 | 5 | 4.0 | 8.0 | 0.00 | 0.00 | 0.00 | 65 | 1011.1 |
| 20260905203113 | 73 | 19 | 4.0 | 9.0 | 0.00 | 0.00 | 0.00 | 64 | 1011.0 |
| 20260905201558 | 72 | 46 | 3.0 | 6.0 | 0.00 | 0.00 | 0.00 | 65 | 1011.1 |
| 20260905200057 | 72 | 340 | 3.0 | 9.0 | 0.00 | 0.00 | 0.00 | 67 | 1011.2 |
| 20260905194551 | 73 | 321 | 1.0 | 6.0 | 0.00 | 0.00 | 0.00 | 64 | 1011.1 |
| 20260905193050 | 72 | 15 | 6.0 | 11.0 | 0.00 | 0.00 | 0.00 | 68 | 1011.1 |
| 20260905191549 | 71 | 349 | 1.0 | 6.0 | 0.00 | 0.00 | 0.00 | 69 | 1011.3 |
| 20260905190150 | 72 | 24 | 1.0 | 4.0 | 0.00 | 0.00 | 0.00 | 66 | 1011.2 |
| 20260905184549 | 72 | 17 | 2.0 | 5.0 | 0.00 | 0.00 | 0.00 | 66 | 1011.2 |
| 20260905183054 | 71 | 36 | 1.0 | 8.0 | 0.00 | 0.00 | 0.00 | 69 | 1011.2 |
| 20260905181602 | 72 | 350 | 3.0 | 8.0 | 0.00 | 0.00 | 0.00 | 66 | 1011.3 |
| 20260905180047 | 72 | 22 | 1.0 | 5.0 | 0.00 | 0.00 | 0.00 | 67 | 1011.1 |
| 20260905174551 | 72 | 360 | 1.0 | 8.0 | 0.00 | 0.00 | 0.00 | 68 | 1011.2 |
| 20260905173046 | 72 | 360 | 1.0 | 4.0 | 0.00 | 0.00 | 0.00 | 67 | 1011.2 |
| 20260905171545 | 72 | 342 | 1.0 | 6.0 | 0.00 | 0.00 | 0.00 | 68 | 1011.5 |
| 20260905170042 | 71 | 19 | 1.0 | 3.0 | 0.00 | 0.00 | 0.00 | 67 | 1011.5 |
| 20260905164541 | 70 | 19 | 1.0 | 4.0 | 0.00 | 0.00 | 0.00 | 71 | 1011.8 |
| 20260905163041 | 70 | 19 | 1.0 | 4.0 | 0.00 | 0.00 | 0.00 | 67 | 1011.7 |
| 20260905161539 | 71 | 355 | 1.0 | 4.0 | 0.00 | 0.00 | 0.00 | 68 | 1011.6 |
| 20260905160106 | 69 | 331 | 1.0 | 7.0 | 0.00 | 0.00 | 0.00 | 72 | 1011.7 |
| 20260905154539 | 69 | 15 | 5.0 | 11.0 | 0.00 | 0.00 | 0.00 | 69 | 1011.8 |
| 20260905153035 | 69 | 26 | 3.0 | 9.0 | 0.00 | 0.00 | 0.00 | 69 | 1011.9 |
| 20260905151537 | 69 | 36 | 3.0 | 9.0 | 0.00 | 0.00 | 0.00 | 69 | 1011.9 |
| 20260905150033 | 68 | 53 | 6.0 | 11.0 | 0.00 | 0.00 | 0.00 | 72 | 1011.9 |
| 20260905144531 | 68 | 355 | 3.0 | 6.0 | 0.00 | 0.00 | 0.00 | 74 | 1011.9 |